Location: Sungai Bunut
(2.6333°N, 113.7333°E)
Time: 01:03:00
(UTC+00:00)

deb Delta 139 - Pass Details

Date: 11 August 2022
Orbit: 843 x 925 km, 99.2° (Epoch: 28 September)

Event Time Altitude Azimuth Distance (km) Brightness Sun altitude
Rises 12:14:10 0° 13° (NNE) 3,504 ? -24.2°
Reaches altitude 10° 12:16:35 10° 13° (NNE) 2,554 ? -24.8°
Maximum altitude 12:22:16 89° 282° (WNW) 882 ? -26.1°
Drops below altitude 10° 12:27:51 10° 194° (SSW) 2,506 ? -27.5°
Sets 12:30:13 0° 193° (SSW) 3,434 ? -28.0°
